Livingston, MT

1:47 AM MDT on May 01, 2017 (GMT -0600)
Mission

Weather History for KLVM - August, 2014

Change the Weather History Date:

Sunday, August 17, 2014

  Actual Average Record
Temperature  
Mean Temperature 71 °F 66 °F  
Max Temperature 87 °F 84 °F 95 °F (2013)
Min Temperature 54 °F 47 °F 29 °F (2002)
Degree Days  
Heating Degree Days 0 2  
Month to date heating degree days 0 22  
Since 1 June heating degree days 204 279  
Since 1 July heating degree days 9 72  
Cooling Degree Days 6 3  
Month to date cooling degree days 100 61  
Year to date cooling degree days 280 190  
Since 1 June cooling degree days 275 189  
Growing Degree Days 20 (Base 50)    
Moisture  
Dew Point 43 °F    
Average Humidity 45    
Maximum Humidity 71    
Minimum Humidity 19    
Precipitation  
Precipitation 0.00 in 0.03 in 0.71 in (2005)
Month to date precipitation 0.25 0.61  
Year to date precipitation 9.50 10.73  
Sea Level Pressure  
Sea Level Pressure 29.98 in    
Wind  
Wind Speed 11 mph (WNW)    
Max Wind Speed 26 mph    
Max Gust Speed 33 mph    
Visibility 10 miles    
Events      
T = Trace of Precipitation, MM = Missing Value Source: NWS Daily Summary

Daily Weather History Graph

Daily Weather History Graph

Search for Another Location

Airport or City:

Trip Planner

Search our weather history database for the weather conditions in past years. The results will help you decide how hot, cold, wet, or windy it might be!

Date:

Astronomy

Aug. 17, 2014 Rise Set
Actual Time 6:24 AM MDT 8:26 PM MDT
Civil Twilight 5:52 AM MDT 8:58 PM MDT
Nautical Twilight 5:12 AM MDT 9:37 PM MDT
Astronomical Twilight 4:28 AM MDT 10:21 PM MDT
Moon No Moon Rise 2:38 PM MDT (8/17)
Length of Visible Light 15h 06m
Length of Day
14h 01m
Waning Gibbous, 48% of the Moon is Illuminated
Aug 17
Waning Gibbous
Aug 25
New
Sep 2
First Quarter
Sep 8
Full
Sep 15
Last Quarter

Hourly Weather History & Observations

Time (MDT) Temp. Dew Point Humidity Pressure Visibility Wind Dir Wind Speed Gust Speed Precip Events Conditions
1:53 AM 62.1 °F 44.1 °F 52% 29.99 in 10.0 mi West 4.6 mph - N/A   Partly Cloudy
2:53 AM 55.9 °F 44.1 °F 64% 29.99 in 10.0 mi West 3.5 mph - N/A   Scattered Clouds
3:53 AM 57.0 °F 45.0 °F 64% 29.99 in 10.0 mi WSW 3.5 mph - N/A   Overcast
4:53 AM 59.0 °F 44.1 °F 58% 30.00 in 10.0 mi NW 8.1 mph - N/A   Mostly Cloudy
5:53 AM 54.0 °F 44.1 °F 69% 30.02 in 10.0 mi WNW 5.8 mph - N/A   Mostly Cloudy
6:53 AM 57.0 °F 45.0 °F 64% 30.02 in 10.0 mi NW 9.2 mph - N/A   Scattered Clouds
7:53 AM 62.1 °F 46.9 °F 58% 30.01 in 10.0 mi West 11.5 mph - N/A   Mostly Cloudy
8:53 AM 64.0 °F 46.0 °F 52% 30.03 in 10.0 mi WNW 10.4 mph - N/A   Clear
9:53 AM 73.9 °F 45.0 °F 35% 30.00 in 10.0 mi WSW 19.6 mph 23.0 mph N/A   Clear
10:53 AM 77.0 °F 43.0 °F 30% 30.00 in 10.0 mi West 16.1 mph 24.2 mph N/A   Clear
11:53 AM 80.1 °F 43.0 °F 27% 29.99 in 10.0 mi West 17.3 mph - N/A   Clear
12:53 PM 82.0 °F 43.0 °F 25% 29.98 in 10.0 mi West 17.3 mph 23.0 mph N/A   Clear
1:53 PM 82.9 °F 43.0 °F 24% 29.96 in 10.0 mi West 18.4 mph 27.6 mph N/A   Clear
2:53 PM 84.9 °F 41.0 °F 21% 29.96 in 10.0 mi West 21.9 mph 27.6 mph N/A   Clear
3:53 PM 86.0 °F 41.0 °F 20% 29.95 in 10.0 mi WNW 19.6 mph 33.4 mph N/A   Clear
4:53 PM 86.0 °F 39.0 °F 19% 29.93 in 10.0 mi West 21.9 mph - N/A   Clear
5:53 PM 84.0 °F 39.9 °F 21% 29.94 in 10.0 mi West 17.3 mph - N/A   Clear
6:53 PM 82.0 °F 41.0 °F 23% 29.93 in 10.0 mi WNW 11.5 mph - N/A   Clear
7:53 PM 78.1 °F 42.1 °F 28% 29.95 in 10.0 mi NNW 9.2 mph - N/A   Partly Cloudy
8:53 PM 71.1 °F 42.1 °F 35% 29.98 in 10.0 mi West 8.1 mph - N/A   Clear
9:53 PM 69.1 °F 42.1 °F 38% 29.98 in 10.0 mi Calm Calm - N/A   Clear
10:53 PM 64.9 °F 41.0 °F 42% 30.00 in 10.0 mi NNW 6.9 mph - N/A   Clear
11:53 PM 62.1 °F 42.1 °F 48% 30.02 in 10.0 mi Calm Calm - N/A   Clear